Winfield, KS

12:05 AM CST on December 16, 2019 (GMT -0600)
Strother

Weather History for KWLD - October, 2019

Change the Weather History Date:

Thursday, October 3, 2019

  Actual Average Record
Temperature  
Mean Temperature 56 °F -  
Max Temperature 59 °F 73 °F 93 °F (2000)
Min Temperature 53 °F 51 °F 39 °F (2010)
Degree Days  
Heating Degree Days 9    
Growing Degree Days 6 (Base 50)    
Moisture  
Dew Point 53 °F    
Average Humidity 94    
Maximum Humidity 100    
Minimum Humidity 74    
Precipitation  
Precipitation 1.22 in - - ()
Sea Level Pressure  
Sea Level Pressure 30.21 in    
Wind  
Wind Speed 12 mph ()    
Max Wind Speed 17 mph    
Max Gust Speed 29 mph    
Visibility 7.5 miles    
Events Rain    
Averages and records for this station are not official NWS values.
T = Trace of Precipitation, MM = Missing Value Source: Averaged Metar Reports

Daily Weather History Graph

Daily Weather History Graph

Search for Another Location

Airport or City:

Astronomy

Oct. 03, 2019 Rise Set
Actual Time 7:25 AM CDT 7:08 PM CDT
Civil Twilight 6:59 AM CDT 7:34 PM CDT
Nautical Twilight 6:28 AM CDT 8:04 PM CDT
Astronomical Twilight 5:58 AM CDT 8:35 PM CDT
Moon 12:51 PM CDT (10/3) 10:55 PM CDT (10/3)
Length of Visible Light 12h 35m
Length of Day
11h 43m
Waxing Crescent, 30% of the Moon is Illuminated
Oct 3
Waxing Crescent
Oct 5
First Quarter
Oct 13
Full
Oct 21
Last Quarter
Oct 27
New

Hourly Weather History & Observations

Time (CDT) Temp. Dew Point Humidity Pressure Visibility Wind Dir Wind Speed Gust Speed Precip Events Conditions
12:28 AM 59.0 °F 57.9 °F 96% 30.08 in 10.0 mi North 16.1 mph - N/A   Overcast
12:54 AM 59.0 °F 57.9 °F 96% 30.05 in 10.0 mi North 12.7 mph - N/A   Overcast
1:21 AM 59.0 °F 57.9 °F 96% 30.09 in 7.0 mi North 15.0 mph - 0.01 in Rain Light Rain
1:49 AM 59.0 °F 57.2 °F 94% 30.08 in 10.0 mi NNE 16.1 mph 21.9 mph 0.01 in   Overcast
1:54 AM 59.0 °F 57.0 °F 93% 30.06 in 10.0 mi North 15.0 mph 24.2 mph 0.01 in   Overcast
2:54 AM 57.0 °F 55.9 °F 96% 30.08 in 7.0 mi NNE 15.0 mph - 0.02 in Rain Light Rain
3:33 AM 55.9 °F 55.0 °F 97% 30.13 in 3.0 mi North 15.0 mph 26.5 mph 0.10 in Rain Heavy Rain
3:37 AM 55.9 °F 55.0 °F 97% 30.13 in 3.0 mi North 15.0 mph 24.2 mph 0.11 in Rain Rain
3:54 AM 55.0 °F 54.0 °F 96% 30.11 in 9.0 mi NNE 15.0 mph 25.3 mph 0.12 in Rain Light Rain
4:14 AM 55.0 °F 53.1 °F 93% 30.14 in 10.0 mi NNE 17.3 mph 26.5 mph 0.00 in   Overcast
4:54 AM 54.0 °F 53.1 °F 97% 30.14 in 7.0 mi NNE 17.3 mph 28.8 mph 0.05 in Rain Light Rain
5:01 AM 54.0 °F 53.1 °F 97% 30.15 in 1.8 mi NNE 16.1 mph 25.3 mph 0.19 in Rain Heavy Rain
5:15 AM 53.1 °F 52.0 °F 96% 30.15 in 2.0 mi NE 12.7 mph 25.3 mph 0.40 in Rain Rain
5:23 AM 53.1 °F 53.1 °F 100% 30.16 in 5.0 mi North 16.1 mph 20.7 mph 0.41 in Rain Light Rain
5:34 AM 54.0 °F 53.1 °F 97% 30.16 in 6.0 mi NNE 16.1 mph - 0.41 in Rain Light Rain
5:54 AM 54.0 °F 53.1 °F 97% 30.16 in 10.0 mi NNE 13.8 mph 21.9 mph 0.42 in Rain Light Rain
6:18 AM 53.1 °F 52.0 °F 96% 30.18 in 5.0 mi NNE 16.1 mph - 0.02 in Rain Rain
6:40 AM 53.1 °F 53.1 °F 100% 30.19 in 4.0 mi North 12.7 mph - 0.13 in Rain Rain
6:54 AM 53.1 °F 53.1 °F 100% 30.19 in 5.0 mi NNE 11.5 mph - 0.16 in Rain Rain
7:45 AM 53.1 °F 52.0 °F 96% 30.21 in 7.0 mi NE 11.5 mph - 0.05 in Rain Light Rain
7:54 AM 53.1 °F 52.0 °F 96% 30.20 in 7.0 mi NNE 11.5 mph 21.9 mph 0.06 in Rain Light Rain
8:12 AM 54.0 °F 54.0 °F 100% 30.22 in 5.0 mi NNE 10.4 mph - 0.01 in Rain Light Rain
8:40 AM 54.0 °F 54.0 °F 100% 30.23 in 5.0 mi NNE 15.0 mph 20.7 mph 0.06 in Rain Light Rain
8:54 AM 54.0 °F 54.0 °F 100% 30.24 in 7.0 mi NNE 10.4 mph - 0.07 in Rain Light Rain
9:05 AM 54.0 °F 54.0 °F 100% 30.24 in 4.0 mi North 13.8 mph - 0.03 in Rain Rain
9:32 AM 53.1 °F 53.1 °F 100% 30.25 in 2.0 mi NE 12.7 mph 24.2 mph 0.10 in Rain Heavy Rain
9:42 AM 54.0 °F 54.0 °F 100% 30.26 in 4.0 mi NNE 11.5 mph - 0.12 in Rain Rain
9:47 AM 53.1 °F 53.1 °F 100% 30.26 in 2.5 mi NNE 9.2 mph - 0.16 in Rain Rain
9:51 AM 53.6 °F 53.6 °F 100% 30.26 in 1.8 mi NNE 11.5 mph - 0.18 in Rain Heavy Rain
9:54 AM 53.1 °F 53.1 °F 100% 30.26 in 1.5 mi NNE 11.5 mph - 0.21 in Rain Heavy Rain
10:01 AM 53.1 °F 53.1 °F 100% 30.26 in 2.0 mi NNE 11.5 mph - 0.01 in Rain Light Rain
10:09 AM 53.1 °F 53.1 °F 100% 30.27 in 9.0 mi NE 9.2 mph - 0.01 in Rain Light Rain
10:42 AM 54.0 °F 54.0 °F 100% 30.27 in 8.0 mi NE 9.2 mph - 0.04 in Rain Light Rain
10:50 AM 53.6 °F 53.6 °F 100% 30.27 in 10.0 mi NE 11.5 mph - 0.04 in Rain Light Rain
10:54 AM 54.0 °F 54.0 °F 100% 30.27 in 10.0 mi NNE 11.5 mph - 0.04 in Rain Light Rain
11:17 AM 54.0 °F 54.0 °F 100% 30.28 in 9.0 mi NNE 10.4 mph - 0.00 in Rain Light Rain
11:51 AM 53.6 °F 53.6 °F 100% 30.28 in 9.0 mi NE 10.4 mph - 0.02 in Rain Light Rain
11:54 AM 54.0 °F 54.0 °F 100% 30.28 in 9.0 mi NNE 10.4 mph - 0.02 in Rain Light Rain
12:04 PM 54.0 °F 54.0 °F 100% 30.29 in 10.0 mi North 12.7 mph - 0.00 in Rain Light Rain
12:54 PM 54.0 °F 54.0 °F 100% 30.27 in 10.0 mi NNE 12.7 mph - 0.03 in Rain Light Rain
1:35 PM 54.0 °F 52.0 °F 93% 30.26 in 10.0 mi NNE 11.5 mph - 0.01 in Rain Light Rain
1:54 PM 55.0 °F 53.1 °F 93% 30.27 in 10.0 mi North 10.4 mph - 0.01 in   Overcast
2:54 PM 55.0 °F 52.0 °F 89% 30.24 in 10.0 mi NNE 9.2 mph - 0.00 in Rain Light Rain
3:17 PM 55.0 °F 52.0 °F 89% 30.24 in 10.0 mi NNE 11.5 mph - 0.00 in Rain Light Rain
3:24 PM 55.0 °F 52.0 °F 89% 30.24 in 10.0 mi North 13.8 mph - 0.00 in Rain Light Rain
3:54 PM 55.9 °F 52.0 °F 87% 30.23 in 10.0 mi NNE 10.4 mph - 0.00 in Rain Light Rain
4:35 PM 55.0 °F 51.1 °F 86% 30.24 in 10.0 mi North 11.5 mph - 0.00 in Rain Light Rain
4:44 PM 55.0 °F 52.0 °F 89% 30.25 in 10.0 mi North 12.7 mph - 0.00 in Rain Light Rain
4:54 PM 55.0 °F 51.1 °F 86% 30.24 in 10.0 mi NNE 9.2 mph - 0.00 in   Overcast
5:54 PM 55.9 °F 52.0 °F 87% 30.24 in 10.0 mi NNE 8.1 mph - 0.00 in   Mostly Cloudy
6:54 PM 55.9 °F 52.0 °F 87% 30.22 in 10.0 mi NE 6.9 mph - N/A   Overcast
7:54 PM 57.0 °F 51.1 °F 81% 30.25 in 10.0 mi NNE 6.9 mph - N/A   Overcast
8:54 PM 57.0 °F 50.0 °F 77% 30.26 in 10.0 mi NE 8.1 mph - N/A   Overcast
9:12 PM 57.0 °F 50.0 °F 77% 30.26 in 10.0 mi NE 6.9 mph - N/A   Overcast
9:54 PM 57.0 °F 48.9 °F 74% 30.29 in 10.0 mi NNE 8.1 mph - N/A   Overcast
10:54 PM 55.9 °F 48.9 °F 77% 30.28 in 10.0 mi ENE 10.4 mph - N/A   Overcast
11:54 PM 55.9 °F 50.0 °F 80% 30.27 in 10.0 mi ENE 9.2 mph - N/A   Overcast